[[{"header":{"parameterUnit":"m.s-1","parameterCategory":2,"la1":30.2991,"la2":30.254,"lo1":-89.0895,"lo2":-89.0444,"dy":0.0017,"dx":0.0017,"nx":28,"ny":28,"refTime":"2023-10-23T09:00:00:Z","depth":"0","parameterNumber":2,"parameterNumberName":"U-component_of_CURRENTS"},"data":[0,0,0,0,0,0,0,0,0,0,0,0,0,0,0,0,0,0,0,0,0,0,0,0,0,0,0,0,0,0,0,0,0,0,0,0,0,0,0,0,0,0,0,0,0,0,0,0,0,0,0,0,0,0,0,0,0,0,-0.2795,-0.2794,0,-0.2703,-0.2701,-0.27,-0.2629,-0.2628,-0.2628,-0.2627,-0.2488,-0.2485,-0.2482,0,0,0,0,0,0,0,0,0,0,0,0,0,-0.2841,-0.2841,-0.2795,-0.2794,-0.2793,-0.2703,-0.2701,-0.27,-0.2629,-0.2628,-0.2627,-0.2627,-0.2489,-0.2485,-0.2481,0,0,0,0,0,0,0,0,0,0,0,0,0,-0.2793,-0.2841,-0.2796,-0.2746,-0.2741,-0.2703,-0.2701,-0.27,-0.2629,-0.2628,-0.2627,-0.2626,-0.249,-0.2485,-0.2481,-0.2474,0,0,-0.2467,-0.2465,0,0,0,0,0,0,0,0,-0.2796,-0.2791,-0.2755,-0.275,-0.2743,-0.2676,-0.2666,-0.2622,-0.263,-0.2672,-0.2627,-0.2626,-0.2547,-0.2538,-0.2524,-0.2468,-0.2462,-0.2467,-0.2464,-0.2462,-0.2461,0,0,0,0,0,0,0,-0.2799,-0.2794,-0.2759,-0.2754,-0.2747,-0.2705,-0.2697,-0.2658,-0.2616,-0.2668,-0.2663,-0.2652,-0.2543,-0.2528,-0.252,-0.246,-0.2467,-0.2463,-0.246,-0.2458,-0.238,-0.238,0,0,0,0,0,0,-0.2815,-0.2798,-0.2762,-0.2756,-0.2767,-0.2705,-0.2697,-0.2699,-0.2617,-0.2604,-0.2653,-0.2649,-0.2537,-0.2525,-0.2515,-0.2497,-0.2462,-0.2458,-0.2455,-0.2379,-0.238,-0.2381,0,0,0,0,0,0,-0.2816,-0.2813,-0.2766,-0.2774,-0.2765,-0.2706,-0.2709,-0.2698,-0.2681,-0.2606,-0.2592,-0.2648,-0.2535,-0.2521,-0.2482,-0.2491,-0.2456,-0.2451,-0.2378,-0.2379,-0.238,-0.2464,0,0,0,0,0,0,-0.2818,-0.2815,-0.2822,-0.2775,-0.2765,-0.2756,-0.2709,-0.2697,-0.2676,-0.267,-0.2597,-0.2583,-0.2533,-0.2489,-0.2477,-0.2484,-0.2448,-0.2378,-0.2379,-0.238,-0.246,-0.2468,-0.2474,0,0,0,0,0,-0.2821,-0.2841,-0.2823,-0.2819,-0.2778,-0.2757,-0.2749,-0.2702,-0.2677,-0.2681,-0.2627,-0.2585,-0.2489,-0.2486,-0.2472,-0.2477,-0.2377,-0.2378,-0.238,-0.2457,-0.2466,-0.2474,0,0,0,0,0,0,-0.2866,-0.2834,-0.2814,-0.2823,-0.2797,-0.2745,-0.2743,-0.2711,-0.2672,-0.2668,-0.2591,-0.2574,-0.2548,-0.2503,-0.2502,-0.246,-0.2427,-0.2426,-0.2491,-0.2498,-0.2505,-0.2464,-0.2444,0,0,0,0,0,-0.288,-0.2883,-0.2847,-0.2852,-0.2846,-0.2797,-0.2781,-0.2757,-0.2715,-0.2697,-0.264,-0.2586,-0.2545,-0.2514,-0.2476,-0.2448,-0.2383,-0.2444,-0.2451,-0.2457,-0.2415,-0.2365,-0.2362,-0.2386,-0.2386,-0.2386,0,0,-0.2893,-0.288,-0.2877,-0.2861,-0.2837,-0.2814,-0.2786,-0.278,-0.275,-0.2689,-0.264,-0.2614,-0.2546,-0.2519,-0.2502,-0.2478,-0.2417,-0.2458,-0.2464,-0.2417,-0.2366,-0.2363,-0.2361,-0.2387,-0.2386,-0.2386,0,0,-0.2906,-0.2918,-0.2911,-0.2893,-0.287,-0.2849,-0.2851,-0.281,-0.2787,-0.2753,-0.2701,-0.2675,-0.2607,-0.2557,-0.2523,-0.2542,-0.2465,-0.2542,-0.2528,-0.2483,-0.248,-0.2476,-0.2394,-0.2382,-0.2535,-0.2535,-0.2535,0,-0.2921,-0.2894,-0.2907,-0.2889,-0.2858,-0.2863,-0.283,-0.2822,-0.277,-0.2735,-0.2749,-0.2644,-0.2617,-0.2543,-0.2557,-0.2554,-0.25,-0.2507,-0.249,-0.2485,-0.248,-0.2396,-0.2382,-0.2539,-0.2539,-0.2538,-0.2538,0,-0.2899,-0.2882,-0.2884,-0.2852,-0.2844,-0.2826,-0.2812,-0.2806,-0.2792,-0.2756,-0.2709,-0.2682,-0.26,-0.2618,-0.2589,-0.2538,-0.2502,-0.2518,-0.2469,-0.2483,-0.2394,-0.2378,-0.2545,-0.2544,-0.2542,-0.2541,0,0,-0.2857,-0.2866,-0.285,-0.2812,-0.2812,-0.2786,-0.2785,-0.2739,-0.269,-0.2701,-0.262,-0.2609,-0.2596,-0.2554,-0.2538,-0.2509,-0.2458,-0.2496,-0.2492,-0.241,-0.2319,-0.2271,-0.2248,-0.2477,-0.2475,-0.2473,-0.2273,0,-0.28,-0.2772,-0.2785,-0.2717,-0.2679,-0.2695,-0.2662,-0.2643,-0.2638,-0.2584,-0.2587,-0.2522,-0.2572,-0.2534,-0.2523,-0.2467,-0.2418,-0.2507,-0.2317,-0.231,-0.2264,-0.2229,-0.2186,-0.2001,-0.2256,-0.2254,-0.2252,0,-0.27,-0.2695,-0.2653,-0.2597,-0.2579,-0.2557,-0.2491,-0.2472,-0.2448,-0.2433,-0.2419,-0.2417,-0.2374,-0.2429,-0.2334,-0.2388,-0.2343,-0.2316,-0.2309,-0.2209,-0.2231,-0.2027,-0.1961,-0.1963,-0.2226,-0.2228,-0.223,0,-0.2575,-0.2556,-0.2522,-0.2506,-0.2485,-0.2453,-0.2438,-0.2415,-0.2361,-0.234,-0.2295,-0.2277,-0.2235,-0.2213,-0.2194,-0.2247,-0.208,-0.2146,-0.2046,-0.2041,-0.1932,-0.1921,-0.1834,-0.205,-0.205,-0.2051,-0.2051,0,-0.2448,-0.239,-0.2465,-0.2418,-0.2309,-0.2362,-0.225,-0.2228,-0.2215,-0.2141,-0.2204,-0.2143,-0.2182,-0.2122,-0.2123,-0.2016,-0.2017,-0.1998,-0.1978,-0.1962,-0.1957,-0.1895,-0.1927,-0.2043,-0.2045,-0.2046,-0.2048,0,-0.2252,-0.2337,-0.223,-0.2233,-0.2233,-0.2136,-0.2099,-0.2042,-0.206,-0.1978,-0.1966,-0.199,-0.1935,-0.1941,-0.1876,-0.1885,-0.1778,-0.1772,-0.1734,-0.1714,-0.1658,-0.1697,-0.1508,-0.1465,-0.1621,-0.1619,-0.1617,0,-0.2155,-0.21,-0.2045,-0.2004,-0.1994,-0.1926,-0.1887,-0.1914,-0.1894,-0.1884,-0.1842,-0.1795,-0.177,-0.1654,-0.1649,-0.1582,-0.1625,-0.1493,-0.1601,-0.1602,-0.1631,-0.1658,-0.1639,-0.1483,-0.148,-0.1477,-0.1475,0,-0.189,-0.1871,-0.1805,-0.1747,-0.1703,-0.1637,-0.1631,-0.1599,-0.1673,-0.1648,-0.1652,-0.1647,-0.157,-0.1521,-0.1438,-0.1413,-0.1474,-0.1439,-0.1449,-0.1499,-0.1507,-0.1475,-0.1654,-0.1453,-0.1455,-0.1457,-0.1458,-0.1459,-0.1654,-0.1552,-0.1524,-0.1456,-0.1423,-0.1416,-0.1359,-0.1437,-0.1419,-0.1441,-0.1491,-0.147,-0.1442,-0.135,-0.1309,-0.1238,-0.1288,-0.1245,-0.128,-0.1297,-0.1292,-0.1403,-0.1195,-0.1196,-0.1197,-0.1197,-0.1198,0,-0.1374,-0.1351,-0.1271,-0.1214,-0.1168,-0.1221,-0.1237,-0.124,-0.1267,-0.128,-0.1306,-0.1298,-0.1242,-0.1218,-0.1168,-0.1118,-0.1112,-0.1092,-0.1138,-0.1119,-0.1207,-0.1243,-0.1026,-0.1026,-0.1026,-0.1026,-0.1026,-0.1026,-0.123,-0.1124,-0.1141,-0.1037,-0.1019,-0.0981,-0.0996,-0.1033,-0.1057,-0.1058,-0.1064,-0.1058,-0.1103,-0.1195,-0.1137,-0.1082,-0.1071,-0.1019,-0.1029,-0.1144,-0.1163,-0.1181,-0.1223,-0.1005,-0.1005,-0.0913,-0.0913,-0.0912]},{"header":{"parameterUnit":"m.s-1","parameterCategory":2,"la1":30.2991,"la2":30.254,"lo1":-89.0895,"lo2":-89.0444,"dy":0.0017,"dx":0.0017,"nx":28,"ny":28,"refTime":"2023-10-23T09:00:00:Z","depth":"0","parameterNumber":3,"parameterNumberName":"V-component_of_CURRENTS"},"data":[0,0,0,0,0,0,0,0,0,0,0,0,0,0,0,0,0,0,0,0,0,0,0,0,0,0,0,0,0,0,0,0,0,0,0,0,0,0,0,0,0,0,0,0,0,0,0,0,0,0,0,0,0,0,0,0,0,0,0.07,0.0701,0,0.083,0.0831,0.0833,0.0896,0.0896,0.0896,0.0896,0.1027,0.1031,0.1034,0,0,0,0,0,0,0,0,0,0,0,0,0,0.0567,0.0568,0.07,0.0701,0.0703,0.083,0.0831,0.0833,0.0896,0.0896,0.0896,0.0895,0.1026,0.103,0.1034,0,0,0,0,0,0,0,0,0,0,0,0,0,0.0654,0.0569,0.07,0.0749,0.0755,0.0829,0.0832,0.0834,0.0896,0.0896,0.0896,0.0895,0.1024,0.103,0.1035,0.1072,0,0,0.1052,0.1054,0,0,0,0,0,0,0,0,0.0649,0.0659,0.074,0.0746,0.0752,0.0846,0.0833,0.0913,0.0896,0.0843,0.0896,0.0895,0.0966,0.0976,0.1002,0.1078,0.1083,0.1052,0.1055,0.1058,0.1059,0,0,0,0,0,0,0,0.0642,0.0654,0.0752,0.0742,0.0749,0.0785,0.0797,0.0849,0.0905,0.0848,0.0852,0.0866,0.097,0.0997,0.1006,0.1085,0.1052,0.1057,0.106,0.1062,0.1166,0.1166,0,0,0,0,0,0,0.0622,0.0648,0.0748,0.0756,0.0698,0.0787,0.0801,0.0817,0.0904,0.0917,0.0866,0.0868,0.0988,0.0999,0.1011,0.1025,0.1058,0.1063,0.1066,0.1167,0.1166,0.1166,0,0,0,0,0,0,0.0619,0.063,0.0743,0.0704,0.0721,0.0789,0.0807,0.0819,0.0841,0.0918,0.0931,0.0874,0.0988,0.1003,0.1044,0.1032,0.1065,0.107,0.1167,0.1167,0.1166,0.1076,0,0,0,0,0,0,0.0615,0.0628,0.0622,0.0703,0.0722,0.077,0.0808,0.0822,0.0849,0.0854,0.0929,0.0942,0.0989,0.1035,0.1049,0.104,0.1074,0.1168,0.1167,0.1166,0.108,0.1073,0.1066,0,0,0,0,0,0.0609,0.0599,0.0622,0.0633,0.0716,0.0769,0.0782,0.0831,0.0849,0.0852,0.0902,0.0939,0.1039,0.1039,0.1056,0.1048,0.1168,0.1167,0.1166,0.1083,0.1074,0.1067,0,0,0,0,0,0,0.0529,0.0607,0.0633,0.0644,0.0696,0.0779,0.0783,0.0823,0.0868,0.087,0.094,0.0956,0.0989,0.103,0.1028,0.1075,0.1108,0.111,0.1039,0.1031,0.1024,0.0992,0.1079,0,0,0,0,0,0.0511,0.0528,0.0606,0.0611,0.0634,0.0708,0.0732,0.0772,0.0827,0.0847,0.09,0.0953,0.1,0.1022,0.1073,0.1099,0.1135,0.1102,0.1096,0.1089,0.1074,0.1109,0.1104,0.1162,0.1162,0.1162,0,0,0.0477,0.0524,0.0531,0.0596,0.0639,0.0663,0.0722,0.0755,0.077,0.0854,0.088,0.0937,0.1004,0.1034,0.1051,0.1063,0.1096,0.1088,0.1082,0.107,0.1107,0.1102,0.1096,0.1161,0.1162,0.1162,0,0,0.0428,0.0465,0.0466,0.0504,0.0568,0.0618,0.0623,0.0703,0.073,0.0772,0.0831,0.0872,0.0949,0.0987,0.1019,0.1004,0.1064,0.1023,0.0959,0.0994,0.0989,0.0985,0.1037,0.1038,0.1014,0.1014,0.1013,0,0.0376,0.0407,0.0471,0.0483,0.0503,0.0591,0.0593,0.0637,0.0717,0.0734,0.0762,0.0866,0.0923,0.0955,0.0949,0.0987,0.1023,0.0984,0.0983,0.098,0.0978,0.1032,0.1034,0.1009,0.101,0.101,0.1011,0,0.0344,0.036,0.0361,0.0409,0.0433,0.0453,0.0521,0.0549,0.0598,0.0646,0.0692,0.0772,0.0831,0.0855,0.09,0.091,0.0949,0.0975,0.0999,0.0966,0.1026,0.103,0.1003,0.1004,0.1006,0.1007,0,0,0.0223,0.0323,0.0315,0.0353,0.0399,0.0438,0.0435,0.0483,0.0506,0.0565,0.059,0.0658,0.0708,0.0745,0.081,0.0834,0.0858,0.0886,0.089,0.0928,0.0947,0.0866,0.0864,0.0883,0.0883,0.0883,0.1,0,0.017,0.0224,0.0253,0.0274,0.0312,0.036,0.0359,0.0406,0.0459,0.0506,0.057,0.0633,0.0665,0.0712,0.0729,0.085,0.0863,0.0825,0.098,0.0985,0.0909,0.0863,0.0845,0.0936,0.1004,0.1005,0.1006,0,0.0104,0.017,0.0216,0.0271,0.0281,0.0299,0.0342,0.0354,0.0409,0.0439,0.0478,0.0552,0.0612,0.0647,0.0768,0.0746,0.0819,0.0893,0.09,0.0852,0.091,0.0978,0.0942,0.1036,0.1013,0.1012,0.1012,0,0.0064,0.0113,0.018,0.0202,0.0284,0.0296,0.0314,0.035,0.038,0.0422,0.0455,0.0513,0.0596,0.0662,0.0792,0.0795,0.0925,0.096,0.0946,0.0944,0.097,0.0967,0.1028,0.1005,0.1005,0.1004,0.1004,0,0.002,0.0064,0.0194,0.0244,0.0307,0.0313,0.0359,0.037,0.0391,0.0432,0.0443,0.0485,0.0604,0.0693,0.0779,0.0865,0.0913,0.0915,0.0951,0.0938,0.0931,0.1047,0.1095,0.1009,0.1008,0.1007,0.1006,0,0.0041,0.009,0.0196,0.0294,0.0322,0.0387,0.043,0.0451,0.0437,0.0491,0.0507,0.0524,0.0596,0.0692,0.0837,0.0869,0.099,0.0968,0.0941,0.0966,0.0994,0.1037,0.1108,0.1147,0.097,0.0969,0.0967,0,0.0094,0.017,0.03,0.035,0.0421,0.0499,0.0527,0.0511,0.0531,0.0515,0.0543,0.0582,0.0581,0.0706,0.0781,0.0873,0.096,0.0915,0.0882,0.0961,0.104,0.1074,0.1106,0.0918,0.0916,0.0915,0.0914,0,0.0258,0.0309,0.0404,0.0486,0.0544,0.0611,0.0647,0.0659,0.0621,0.0627,0.0586,0.0555,0.0587,0.0629,0.0709,0.0767,0.0948,0.0884,0.0995,0.0994,0.1013,0.108,0.0899,0.0902,0.0903,0.0904,0.0905,0.0905,0.0416,0.0493,0.0573,0.0639,0.0674,0.0687,0.0697,0.0715,0.0717,0.0673,0.0623,0.0562,0.0559,0.0614,0.0691,0.084,0.0849,0.0896,0.0948,0.098,0.0972,0.0731,0.0738,0.0738,0.0738,0.0738,0.0738,0,0.0611,0.064,0.0703,0.0737,0.0741,0.0737,0.0743,0.0717,0.0704,0.069,0.0625,0.0583,0.0625,0.07,0.0854,0.0934,0.0991,0.0994,0.1091,0.1126,0.0954,0.0902,0.0908,0.0908,0.0908,0.0908,0.0908,0.0908,0.0727,0.0803,0.0779,0.0791,0.0775,0.074,0.0713,0.0685,0.0663,0.0643,0.0635,0.0586,0.0673,0.0932,0.1122,0.1132,0.1267,0.1211,0.13,0.1237,0.1234,0.1231,0.1195,0.1262,0.1262,0.1469,0.1471,0.1472]}],[{"header":{"parameterUnit":"m.s-1","parameterCategory":2,"la1":30.2991,"la2":30.254,"lo1":-89.0895,"lo2":-89.0444,"dy":0.0017,"dx":0.0017,"nx":28,"ny":28,"refTime":"2023-10-23T09:00:00:Z","depth":"2","parameterNumber":2,"parameterNumberName":"U-component_of_CURRENTS"},"data":[0,0,0,0,0,0,0,0,0,0,0,0,0,0,0,0,0,0,0,0,0,0,0,0,0,0,0,0,0,0,0,0,0,0,0,0,0,0,0,0,0,0,0,0,0,0,0,0,0,0,0,0,0,0,0,0,0,0,-0.1875,-0.1875,0,-0.1832,-0.1831,-0.183,-0.1828,-0.1829,-0.183,-0.183,-0.1748,-0.1745,-0.1742,0,0,0,0,0,0,0,0,0,0,0,0,0,-0.1823,-0.1825,-0.1875,-0.1875,-0.1874,-0.1832,-0.1831,-0.183,-0.1828,-0.1829,-0.183,-0.1831,-0.1749,-0.1745,-0.1742,0,0,0,0,0,0,0,0,0,0,0,0,0,-0.1818,-0.1825,-0.1875,-0.187,-0.1869,-0.1832,-0.1831,-0.183,-0.1828,-0.1829,-0.183,-0.1831,-0.175,-0.1746,-0.1742,-0.1695,0,0,-0.1729,-0.1727,0,0,0,0,0,0,0,0,-0.1818,-0.182,-0.1871,-0.187,-0.1869,-0.1838,-0.1782,-0.1783,-0.1828,-0.1842,-0.183,-0.1832,-0.1775,-0.1769,-0.1756,-0.1691,-0.1687,-0.1728,-0.1726,-0.1724,-0.1723,0,0,0,0,0,0,0,-0.1819,-0.1821,-0.1856,-0.187,-0.1869,-0.1824,-0.1825,-0.1782,-0.1801,-0.184,-0.1841,-0.1838,-0.1774,-0.176,-0.1754,-0.1686,-0.1728,-0.1724,-0.1722,-0.172,-0.1559,-0.1558,0,0,0,0,0,0,-0.1834,-0.1822,-0.1857,-0.1855,-0.1848,-0.1825,-0.1826,-0.1845,-0.1802,-0.1797,-0.1838,-0.1839,-0.1767,-0.1759,-0.1751,-0.1727,-0.1724,-0.172,-0.1717,-0.1561,-0.1559,-0.1557,0,0,0,0,0,0,-0.1834,-0.1839,-0.1859,-0.1837,-0.1837,-0.1826,-0.1846,-0.1844,-0.1846,-0.1801,-0.1795,-0.1844,-0.1767,-0.1757,-0.1718,-0.1722,-0.1718,-0.1714,-0.1563,-0.156,-0.1558,-0.1656,0,0,0,0,0,0,-0.1833,-0.1839,-0.1857,-0.1839,-0.1839,-0.1842,-0.1846,-0.1843,-0.1843,-0.1844,-0.1804,-0.1797,-0.1767,-0.1724,-0.1714,-0.1716,-0.1711,-0.1565,-0.1562,-0.1559,-0.1655,-0.1657,-0.1659,0,0,0,0,0,-0.1831,-0.1852,-0.1858,-0.1862,-0.1865,-0.1841,-0.1836,-0.1829,-0.1843,-0.1836,-0.1811,-0.1799,-0.1696,-0.172,-0.1708,-0.171,-0.1567,-0.1563,-0.1559,-0.1654,-0.1657,-0.1659,0,0,0,0,0,0,-0.1841,-0.1853,-0.186,-0.1885,-0.1867,-0.1842,-0.1838,-0.1837,-0.1813,-0.1816,-0.1785,-0.1774,-0.1733,-0.1696,-0.1724,-0.1645,-0.1625,-0.1618,-0.1701,-0.1703,-0.1705,-0.1749,-0.1707,0,0,0,0,0,-0.1852,-0.1869,-0.1864,-0.188,-0.1876,-0.186,-0.1852,-0.1846,-0.1823,-0.1816,-0.1789,-0.1747,-0.1701,-0.1688,-0.1631,-0.1601,-0.157,-0.1585,-0.1588,-0.159,-0.1612,-0.1613,-0.162,-0.1544,-0.1544,-0.1544,0,0,-0.1859,-0.1867,-0.1877,-0.1882,-0.187,-0.1857,-0.1858,-0.1846,-0.1841,-0.1807,-0.179,-0.1748,-0.1688,-0.165,-0.1628,-0.163,-0.1574,-0.1585,-0.1589,-0.1609,-0.161,-0.1619,-0.1626,-0.1542,-0.1542,-0.1543,0,0,-0.1853,-0.189,-0.1887,-0.1885,-0.1872,-0.1859,-0.1863,-0.1842,-0.1842,-0.1819,-0.1784,-0.1758,-0.1693,-0.166,-0.1635,-0.1609,-0.1576,-0.1577,-0.1645,-0.1647,-0.1655,-0.1662,-0.1561,-0.1559,-0.1593,-0.1594,-0.1594,0,-0.1865,-0.1892,-0.1878,-0.1873,-0.1899,-0.1866,-0.1881,-0.1849,-0.1819,-0.1842,-0.1822,-0.1763,-0.1702,-0.1686,-0.1668,-0.1621,-0.1589,-0.1655,-0.1658,-0.1664,-0.167,-0.1566,-0.1562,-0.1598,-0.1597,-0.1597,-0.1597,0,-0.1838,-0.1888,-0.189,-0.189,-0.1885,-0.1908,-0.1876,-0.1872,-0.1879,-0.1872,-0.187,-0.18,-0.1778,-0.1741,-0.1698,-0.1701,-0.1646,-0.1658,-0.1674,-0.1686,-0.1571,-0.1566,-0.1604,-0.1602,-0.1601,-0.16,0,0,-0.1859,-0.1878,-0.1916,-0.1911,-0.1935,-0.1908,-0.1925,-0.1946,-0.1938,-0.1937,-0.1957,-0.1901,-0.1889,-0.1855,-0.1797,-0.1799,-0.1764,-0.1756,-0.1754,-0.1692,-0.1704,-0.1657,-0.1645,-0.1805,-0.1807,-0.1808,-0.1583,0,-0.1884,-0.1911,-0.1943,-0.1963,-0.1948,-0.1985,-0.1978,-0.1975,-0.1976,-0.1954,-0.1963,-0.1906,-0.1919,-0.1874,-0.1903,-0.1775,-0.1766,-0.1819,-0.167,-0.1663,-0.1655,-0.1646,-0.1579,-0.1377,-0.1577,-0.1576,-0.1576,0,-0.186,-0.1896,-0.1944,-0.1972,-0.1981,-0.1979,-0.2005,-0.1994,-0.1985,-0.1985,-0.2023,-0.1978,-0.1953,-0.1944,-0.1869,-0.1909,-0.1826,-0.1755,-0.1745,-0.168,-0.1611,-0.1406,-0.1359,-0.1566,-0.1567,-0.1568,-0.1568,0,-0.1802,-0.1901,-0.1952,-0.197,-0.1973,-0.2012,-0.2024,-0.2015,-0.1983,-0.1977,-0.1932,-0.1972,-0.1877,-0.1894,-0.1768,-0.1813,-0.1656,-0.1688,-0.1574,-0.1564,-0.1466,-0.1448,-0.1663,-0.1664,-0.1664,-0.1665,-0.1665,0,-0.1783,-0.1828,-0.1919,-0.1918,-0.1937,-0.1952,-0.1934,-0.1956,-0.1929,-0.1878,-0.1916,-0.1857,-0.1866,-0.1784,-0.1754,-0.1628,-0.1651,-0.1579,-0.1531,-0.1484,-0.1471,-0.1624,-0.1622,-0.1656,-0.1658,-0.166,-0.1661,0,-0.1661,-0.1752,-0.1772,-0.1859,-0.1868,-0.1862,-0.1857,-0.1826,-0.1809,-0.174,-0.1725,-0.1703,-0.1626,-0.1602,-0.1513,-0.1519,-0.1446,-0.1394,-0.1287,-0.1236,-0.1346,-0.1351,-0.1258,-0.1255,-0.1253,-0.1251,-0.1249,0,-0.1608,-0.1592,-0.1699,-0.1708,-0.1753,-0.1747,-0.1729,-0.1751,-0.1723,-0.1652,-0.1617,-0.1514,-0.1457,-0.1302,-0.1302,-0.1227,-0.13,-0.1106,-0.1225,-0.1356,-0.1317,-0.1326,-0.1334,-0.1068,-0.1064,-0.1062,-0.106,0,-0.1475,-0.1524,-0.1551,-0.157,-0.1586,-0.1594,-0.1595,-0.154,-0.1556,-0.1497,-0.1433,-0.1373,-0.1255,-0.1172,-0.1069,-0.1043,-0.1141,-0.1055,-0.121,-0.1217,-0.117,-0.1134,-0.115,-0.1038,-0.104,-0.1042,-0.1043,-0.1044,-0.1387,-0.1364,-0.1389,-0.1399,-0.1443,-0.1441,-0.1356,-0.1375,-0.1302,-0.1207,-0.1271,-0.1154,-0.1133,-0.0964,-0.0914,-0.0882,-0.0971,-0.0956,-0.0967,-0.0979,-0.1034,-0.0991,-0.0826,-0.0827,-0.0828,-0.0829,-0.0829,0,-0.1185,-0.1169,-0.12,-0.1192,-0.1188,-0.1279,-0.1247,-0.1147,-0.1033,-0.1062,-0.1004,-0.0901,-0.0834,-0.0811,-0.0748,-0.0741,-0.0757,-0.0708,-0.075,-0.0771,-0.0791,-0.0841,-0.0578,-0.0577,-0.0577,-0.0576,0,0,-0.1042,-0.0978,-0.0998,-0.0929,-0.0948,-0.0878,-0.0838,-0.0771,-0.075,-0.0677,-0.0661,-0.0741,-0.0771,-0.0672,-0.0659,-0.0607,-0.0674,-0.0572,-0.0773,-0.0841,-0.0859,-0.0933,-0.1034,0,0,0,0,0]},{"header":{"parameterUnit":"m.s-1","parameterCategory":2,"la1":30.2991,"la2":30.254,"lo1":-89.0895,"lo2":-89.0444,"dy":0.0017,"dx":0.0017,"nx":28,"ny":28,"refTime":"2023-10-23T09:00:00:Z","depth":"2","parameterNumber":3,"parameterNumberName":"V-component_of_CURRENTS"},"data":[0,0,0,0,0,0,0,0,0,0,0,0,0,0,0,0,0,0,0,0,0,0,0,0,0,0,0,0,0,0,0,0,0,0,0,0,0,0,0,0,0,0,0,0,0,0,0,0,0,0,0,0,0,0,0,0,0,0,-0.0451,-0.045,0,-0.0357,-0.0356,-0.0355,-0.0355,-0.0356,-0.0357,-0.0358,-0.0243,-0.0238,-0.0234,0,0,0,0,0,0,0,0,0,0,0,0,0,-0.0601,-0.0598,-0.0451,-0.045,-0.0448,-0.0357,-0.0356,-0.0354,-0.0354,-0.0356,-0.0357,-0.0359,-0.0244,-0.0239,-0.0234,0,0,0,0,0,0,0,0,0,0,0,0,0,-0.0524,-0.0597,-0.0451,-0.0437,-0.0435,-0.0357,-0.0356,-0.0354,-0.0354,-0.0356,-0.0358,-0.0359,-0.0246,-0.0239,-0.0233,-0.0158,0,0,-0.0214,-0.0211,0,0,0,0,0,0,0,0,-0.0529,-0.0519,-0.044,-0.0438,-0.0435,-0.0369,-0.0366,-0.0288,-0.0354,-0.0385,-0.0358,-0.036,-0.0281,-0.0272,-0.0251,-0.0153,-0.0148,-0.0213,-0.021,-0.0207,-0.0205,0,0,0,0,0,0,0,-0.0534,-0.0523,-0.0414,-0.0439,-0.0436,-0.0426,-0.0417,-0.0351,-0.0324,-0.0382,-0.0382,-0.0371,-0.028,-0.0257,-0.0248,-0.0146,-0.0214,-0.0208,-0.0204,-0.0202,0.0031,0.0033,0,0,0,0,0,0,-0.0544,-0.0527,-0.0417,-0.0411,-0.0487,-0.0422,-0.0412,-0.0389,-0.0325,-0.0317,-0.0369,-0.0371,-0.0267,-0.0256,-0.0244,-0.0126,-0.0207,-0.0201,-0.0197,0.0029,0.0032,0.0034,0,0,0,0,0,0,-0.0547,-0.0534,-0.0421,-0.0468,-0.0453,-0.0417,-0.0391,-0.0386,-0.0364,-0.0315,-0.0308,-0.0353,-0.0268,-0.0253,-0.018,-0.0123,-0.0198,-0.0193,0.0026,0.003,0.0033,0.0095,0,0,0,0,0,0,-0.0552,-0.0536,-0.0517,-0.0468,-0.0451,-0.0367,-0.0389,-0.0383,-0.0354,-0.0356,-0.0298,-0.029,-0.0268,-0.0189,-0.0173,-0.0115,-0.0188,0.0023,0.0027,0.0032,0.009,0.01,0.0109,0,0,0,0,0,-0.0557,-0.0515,-0.0516,-0.0503,-0.0427,-0.0366,-0.0355,-0.0337,-0.0352,-0.0327,-0.0293,-0.0292,-0.015,-0.0182,-0.0164,-0.0103,0.0021,0.0026,0.0031,0.0086,0.0098,0.0109,0,0,0,0,0,0,-0.0559,-0.051,-0.051,-0.0453,-0.0414,-0.0366,-0.0332,-0.033,-0.0283,-0.0285,-0.0256,-0.0242,-0.0159,-0.0137,-0.0174,-0.0023,-0.0065,-0.0055,-0.0029,-0.0017,-0.0008,-0.0018,-0.0182,0,0,0,0,0,-0.0553,-0.0514,-0.0471,-0.0424,-0.0402,-0.037,-0.0343,-0.0333,-0.0289,-0.0272,-0.023,-0.0181,-0.0118,-0.0078,-0.0025,0.0067,0.0068,0.0116,0.0126,0.0134,0.0138,0.0191,0.0205,0.0052,0.0052,0.0052,0,0,-0.054,-0.0507,-0.0485,-0.0423,-0.039,-0.0344,-0.0357,-0.0308,-0.0269,-0.0261,-0.0185,-0.0145,-0.0089,0.0005,0.0046,0.003,0.0178,0.0141,0.0147,0.0147,0.0198,0.0213,0.0226,0.0056,0.0055,0.0054,0,0,-0.0501,-0.0465,-0.0429,-0.0388,-0.0339,-0.0315,-0.0303,-0.0249,-0.0224,-0.014,-0.0133,-0.006,0.0042,0.0092,0.0131,0.0231,0.022,0.0247,0.0302,0.0354,0.0367,0.0378,0.0389,0.04,0.026,0.026,0.026,0,-0.0489,-0.0432,-0.0407,-0.0358,-0.0313,-0.0303,-0.025,-0.0214,-0.0146,-0.0107,-0.0107,0.0045,0.0092,0.02,0.0234,0.0256,0.0259,0.0252,0.0365,0.0376,0.0387,0.0395,0.0407,0.0264,0.0263,0.0263,0.0263,0,-0.0437,-0.0377,-0.0342,-0.0283,-0.0237,-0.0179,-0.0136,-0.0091,-0.0056,-0.0017,0.0094,0.0161,0.0241,0.0283,0.0298,0.0401,0.0369,0.0362,0.033,0.0406,0.041,0.0421,0.0269,0.0268,0.0267,0.0266,0,0,-0.0412,-0.0328,-0.0295,-0.0271,-0.0186,-0.0148,-0.007,0.0008,0.0039,0.0133,0.0201,0.0337,0.0346,0.0389,0.0414,0.0478,0.0559,0.0455,0.0456,0.0454,0.0642,0.0543,0.0545,0.0566,0.0569,0.0571,0.0611,0,-0.0367,-0.0287,-0.0227,-0.0135,-0.0108,-0.0042,0.0019,0.0084,0.014,0.02,0.0291,0.0359,0.0391,0.0419,0.0495,0.053,0.0593,0.0547,0.0578,0.0579,0.0474,0.0558,0.0537,0.0565,0.0622,0.0624,0.0625,0,-0.0334,-0.0283,-0.0213,-0.0108,-0.0078,-0.0016,0.0074,0.0134,0.0218,0.0261,0.0349,0.0382,0.0491,0.0491,0.0623,0.0584,0.0624,0.066,0.0662,0.0555,0.0502,0.0503,0.0582,0.0643,0.0642,0.064,0.0639,0,-0.0401,-0.0253,-0.021,-0.0171,-0.0074,-0.0006,0.0072,0.0154,0.0192,0.028,0.0302,0.0424,0.0461,0.056,0.0612,0.0628,0.0717,0.0746,0.0702,0.0693,0.0674,0.0659,0.085,0.085,0.085,0.085,0.085,0,-0.0409,-0.0349,-0.0237,-0.0222,-0.0161,-0.0049,0.0011,0.0089,0.0184,0.0201,0.0311,0.0318,0.048,0.0531,0.0609,0.0659,0.0714,0.0723,0.0711,0.0692,0.0679,0.0744,0.0731,0.0851,0.0851,0.0851,0.085,0,-0.0515,-0.0439,-0.0405,-0.027,-0.0226,-0.0191,-0.0041,-0.0011,0.0098,0.0121,0.0146,0.0254,0.0322,0.0441,0.0569,0.0624,0.0698,0.0696,0.0633,0.0613,0.0651,0.0641,0.0708,0.0705,0.0702,0.07,0.0699,0,-0.0557,-0.0573,-0.0485,-0.0477,-0.0409,-0.0325,-0.0288,-0.0114,-0.0084,0.0044,0.0031,0.0132,0.0147,0.029,0.0425,0.0552,0.0595,0.0583,0.0636,0.0662,0.0644,0.0638,0.0632,0.0642,0.064,0.0639,0.0637,0,-0.067,-0.0668,-0.0651,-0.0638,-0.0592,-0.0542,-0.0437,-0.0429,-0.0264,-0.0227,-0.0179,-0.0129,0.004,0.017,0.0327,0.0399,0.0572,0.055,0.0625,0.0653,0.0596,0.0579,0.0577,0.0623,0.0624,0.0625,0.0626,0.0627,-0.078,-0.0796,-0.0798,-0.077,-0.075,-0.0727,-0.0689,-0.0622,-0.059,-0.0484,-0.0394,-0.0279,-0.0049,0.0162,0.0284,0.0419,0.0451,0.0519,0.0528,0.0537,0.0494,0.0433,0.042,0.042,0.0421,0.0421,0.0421,0,-0.0866,-0.0871,-0.0893,-0.0873,-0.0868,-0.0812,-0.0769,-0.0726,-0.0723,-0.0647,-0.0553,-0.0316,-0.0138,0.0092,0.0294,0.0413,0.0461,0.0426,0.0499,0.051,0.0522,0.0482,0.0403,0.0404,0.0404,0.0405,0,0,-0.0937,-0.0949,-0.0928,-0.0949,-0.0939,-0.0913,-0.089,-0.0867,-0.0792,-0.0745,-0.063,-0.0419,-0.013,0.0026,0.0202,0.0302,0.0365,0.0298,0.0296,0.037,0.038,0.0554,0.0501,0,0,0,0,0]}],[{"header":{"parameterUnit":"m.s-1","parameterCategory":2,"la1":30.2991,"la2":30.254,"lo1":-89.0895,"lo2":-89.0444,"dy":0.0017,"dx":0.0017,"nx":28,"ny":28,"refTime":"2023-10-23T09:00:00:Z","depth":"4","parameterNumber":2,"parameterNumberName":"U-component_of_CURRENTS"},"data":[0,0,0,0,0,0,0,0,0,0,0,0,0,0,0,0,0,0,0,0,0,0,0,0,0,0,0,0,0,0,0,0,0,0,0,0,0,0,0,0,0,0,0,0,0,0,0,0,0,0,0,0,0,0,0,0,0,0,-0.0482,-0.0482,0,-0.0515,-0.0516,-0.0516,-0.0542,-0.0542,-0.0543,-0.0543,-0.0627,-0.0629,-0.0631,0,0,0,0,0,0,0,0,0,0,0,0,0,-0.0486,-0.0485,-0.0482,-0.0482,-0.0483,-0.0515,-0.0516,-0.0516,-0.0542,-0.0542,-0.0543,-0.0543,-0.0626,-0.0628,-0.0631,0,0,0,0,0,0,0,0,0,0,0,0,0,-0.0498,-0.0485,-0.0482,-0.05,-0.0502,-0.0515,-0.0516,-0.0516,-0.0542,-0.0542,-0.0543,-0.0543,-0.0625,-0.0628,-0.0631,-0.0641,0,0,-0.064,-0.0641,0,0,0,0,0,0,0,0,-0.0497,-0.0497,-0.0497,-0.0499,-0.0501,-0.0525,-0.0548,-0.056,-0.0542,-0.0526,-0.0543,-0.0543,-0.0597,-0.0603,-0.0607,-0.0645,-0.0649,-0.064,-0.0642,-0.0644,-0.0644,0,0,0,0,0,0,0,-0.0496,-0.0496,-0.0495,-0.0497,-0.05,-0.0522,-0.0523,-0.055,-0.056,-0.0528,-0.053,-0.0534,-0.0599,-0.0604,-0.0609,-0.065,-0.064,-0.0643,-0.0645,-0.0646,-0.0767,-0.0768,0,0,0,0,0,0,-0.0489,-0.0495,-0.0494,-0.0496,-0.05,-0.0521,-0.0523,-0.0517,-0.0559,-0.0565,-0.0533,-0.0535,-0.0599,-0.0606,-0.0612,-0.0681,-0.0644,-0.0646,-0.0648,-0.0765,-0.0767,-0.0769,0,0,0,0,0,0,-0.0489,-0.0488,-0.0492,-0.0497,-0.0499,-0.052,-0.0513,-0.0517,-0.0541,-0.0562,-0.057,-0.0555,-0.0599,-0.0608,-0.065,-0.0683,-0.0648,-0.065,-0.0764,-0.0766,-0.0768,-0.0784,0,0,0,0,0,0,-0.0489,-0.0488,-0.0481,-0.0496,-0.0499,-0.0501,-0.0513,-0.0517,-0.0542,-0.0544,-0.0583,-0.059,-0.06,-0.0645,-0.0652,-0.0686,-0.0653,-0.0762,-0.0765,-0.0767,-0.0782,-0.0786,-0.079,0,0,0,0,0,-0.0489,-0.0478,-0.048,-0.048,-0.0488,-0.0501,-0.0504,-0.0521,-0.0542,-0.0546,-0.0581,-0.059,-0.0668,-0.0648,-0.0657,-0.0692,-0.0761,-0.0764,-0.0767,-0.078,-0.0785,-0.079,0,0,0,0,0,0,-0.0478,-0.048,-0.0483,-0.0473,-0.0487,-0.0506,-0.0512,-0.0533,-0.0563,-0.0567,-0.0602,-0.0611,-0.0651,-0.0675,-0.0652,-0.0736,-0.0719,-0.0724,-0.0726,-0.0732,-0.0736,-0.0731,-0.0655,0,0,0,0,0,-0.0471,-0.0463,-0.0474,-0.0468,-0.0475,-0.0499,-0.051,-0.0518,-0.0545,-0.0559,-0.0595,-0.0635,-0.0668,-0.0702,-0.0718,-0.0773,-0.0762,-0.0805,-0.0809,-0.0813,-0.0816,-0.082,-0.0824,-0.0779,-0.0779,-0.0779,0,0,-0.0469,-0.0467,-0.0464,-0.0466,-0.0479,-0.0495,-0.0507,-0.0517,-0.0539,-0.0564,-0.0613,-0.0637,-0.0679,-0.0725,-0.075,-0.0756,-0.0818,-0.0817,-0.0819,-0.0821,-0.0824,-0.0828,-0.0832,-0.0782,-0.0781,-0.0781,0,0,-0.0468,-0.0457,-0.0458,-0.047,-0.0481,-0.0489,-0.0499,-0.0525,-0.0545,-0.0585,-0.061,-0.0658,-0.0717,-0.0757,-0.0785,-0.0831,-0.0821,-0.0848,-0.0892,-0.0896,-0.0899,-0.0901,-0.0877,-0.0877,-0.0874,-0.0874,-0.0874,0,-0.0467,-0.0467,-0.0462,-0.0476,-0.049,-0.0494,-0.0513,-0.0529,-0.0569,-0.0593,-0.0599,-0.0695,-0.0732,-0.0805,-0.0831,-0.0841,-0.0829,-0.0865,-0.0899,-0.0902,-0.0904,-0.0878,-0.0878,-0.0875,-0.0875,-0.0875,-0.0875,0,-0.0473,-0.0482,-0.0487,-0.0502,-0.0512,-0.0522,-0.0542,-0.0559,-0.0585,-0.0611,-0.0671,-0.0718,-0.0785,-0.0812,-0.0844,-0.0901,-0.088,-0.088,-0.0878,-0.0909,-0.088,-0.088,-0.0877,-0.0877,-0.0876,-0.0876,0,0,-0.0471,-0.0485,-0.0493,-0.0506,-0.0525,-0.0533,-0.0563,-0.0592,-0.0614,-0.066,-0.0703,-0.0792,-0.0819,-0.0855,-0.0901,-0.0932,-0.0945,-0.0931,-0.0931,-0.0894,-0.0931,-0.0886,-0.0881,-0.095,-0.095,-0.0951,-0.0897,0,-0.0488,-0.0502,-0.051,-0.0542,-0.0559,-0.057,-0.0598,-0.0622,-0.0644,-0.0678,-0.0737,-0.0784,-0.0836,-0.0872,-0.0914,-0.0927,-0.0948,-0.0958,-0.0919,-0.0917,-0.0863,-0.0881,-0.0953,-0.0897,-0.0897,-0.0897,-0.0896,0,-0.0524,-0.0516,-0.0534,-0.0563,-0.0572,-0.0591,-0.0619,-0.0639,-0.0678,-0.0698,-0.0758,-0.0786,-0.0863,-0.0879,-0.0933,-0.0936,-0.0944,-0.0947,-0.0945,-0.0899,-0.0873,-0.0866,-0.0896,-0.0896,-0.0896,-0.0896,-0.0896,0,-0.0537,-0.0562,-0.0563,-0.0573,-0.0586,-0.0607,-0.0624,-0.0658,-0.0673,-0.071,-0.0721,-0.0794,-0.0828,-0.0858,-0.0902,-0.0913,-0.0916,-0.0923,-0.0882,-0.0877,-0.0924,-0.0922,-0.094,-0.094,-0.094,-0.0941,-0.0941,0,-0.0554,-0.0565,-0.0571,-0.0568,-0.0579,-0.061,-0.063,-0.0649,-0.0681,-0.07,-0.0741,-0.0769,-0.0826,-0.0845,-0.0875,-0.0876,-0.0897,-0.0884,-0.0867,-0.0931,-0.0931,-0.0922,-0.0921,-0.0938,-0.0939,-0.0939,-0.094,0,-0.0545,-0.0552,-0.0565,-0.0578,-0.0585,-0.0594,-0.0626,-0.064,-0.067,-0.069,-0.0704,-0.0746,-0.0772,-0.0803,-0.083,-0.0834,-0.0837,-0.083,-0.0874,-0.086,-0.0796,-0.0796,-0.0766,-0.0765,-0.0763,-0.0762,-0.076,0,-0.0519,-0.0532,-0.0556,-0.0562,-0.0562,-0.058,-0.0594,-0.063,-0.0647,-0.0685,-0.0695,-0.072,-0.0752,-0.0733,-0.0775,-0.0779,-0.0794,-0.0767,-0.0814,-0.0794,-0.0781,-0.0784,-0.0787,-0.0758,-0.0757,-0.0757,-0.0757,0,-0.0479,-0.051,-0.0507,-0.052,-0.054,-0.0541,-0.0575,-0.0581,-0.0625,-0.0657,-0.0677,-0.0686,-0.0697,-0.0715,-0.0709,-0.0728,-0.0769,-0.0751,-0.0755,-0.0799,-0.0784,-0.0773,-0.0777,-0.0751,-0.0752,-0.0752,-0.0753,0,-0.0456,-0.046,-0.0487,-0.0486,-0.0502,-0.0503,-0.0522,-0.0553,-0.0568,-0.0627,-0.0636,-0.0665,-0.07,-0.0688,-0.0696,-0.0691,-0.07,-0.069,-0.0698,-0.0704,-0.0713,-0.0687,-0.0608,0,0,0,0,0,-0.0435,-0.0446,-0.0453,-0.0456,-0.0464,-0.0468,-0.0506,-0.0531,-0.0579,-0.0585,-0.0612,-0.0629,-0.0636,-0.0648,-0.0634,-0.0665,-0.0693,-0.0645,-0.0684,-0.072,-0.0727,-0.0746,0,0,0,0,0,0,-0.0422,-0.0441,-0.0445,-0.0421,-0.0412,-0.0414,-0.0435,-0.047,-0.0482,-0.0539,-0.0547,-0.0592,-0.0604,-0.0635,-0.062,-0.0624,-0.0638,-0.0669,-0.0668,-0.0717,-0.0722,-0.0728,-0.075,0,0,0,0,0]},{"header":{"parameterUnit":"m.s-1","parameterCategory":2,"la1":30.2991,"la2":30.254,"lo1":-89.0895,"lo2":-89.0444,"dy":0.0017,"dx":0.0017,"nx":28,"ny":28,"refTime":"2023-10-23T09:00:00:Z","depth":"4","parameterNumber":3,"parameterNumberName":"V-component_of_CURRENTS"},"data":[0,0,0,0,0,0,0,0,0,0,0,0,0,0,0,0,0,0,0,0,0,0,0,0,0,0,0,0,0,0,0,0,0,0,0,0,0,0,0,0,0,0,0,0,0,0,0,0,0,0,0,0,0,0,0,0,0,0,-0.0622,-0.0622,0,-0.0639,-0.0639,-0.0639,-0.0637,-0.0637,-0.0637,-0.0637,-0.0632,-0.0632,-0.0632,0,0,0,0,0,0,0,0,0,0,0,0,0,-0.0553,-0.0554,-0.0622,-0.0622,-0.0623,-0.0639,-0.0639,-0.0639,-0.0637,-0.0637,-0.0637,-0.0637,-0.0632,-0.0632,-0.0632,0,0,0,0,0,0,0,0,0,0,0,0,0,-0.0577,-0.0555,-0.0622,-0.0624,-0.0624,-0.0639,-0.0639,-0.0639,-0.0638,-0.0637,-0.0637,-0.0637,-0.0632,-0.0632,-0.0632,-0.064,0,0,-0.0633,-0.0633,0,0,0,0,0,0,0,0,-0.0576,-0.058,-0.0623,-0.0624,-0.0624,-0.0636,-0.0613,-0.0639,-0.0638,-0.0632,-0.0637,-0.0636,-0.0632,-0.0632,-0.0636,-0.064,-0.064,-0.0633,-0.0633,-0.0633,-0.0633,0,0,0,0,0,0,0,-0.0574,-0.0579,-0.0628,-0.0624,-0.0624,-0.0611,-0.0615,-0.0618,-0.0633,-0.0633,-0.0633,-0.0635,-0.0632,-0.0636,-0.0635,-0.064,-0.0633,-0.0633,-0.0633,-0.0633,-0.0667,-0.0667,0,0,0,0,0,0,-0.0575,-0.0578,-0.0628,-0.0629,-0.0599,-0.0613,-0.0617,-0.0632,-0.0634,-0.0634,-0.0635,-0.0635,-0.0636,-0.0635,-0.0635,-0.0656,-0.0633,-0.0633,-0.0633,-0.0666,-0.0667,-0.0668,0,0,0,0,0,0,-0.0574,-0.058,-0.0627,-0.0603,-0.0608,-0.0615,-0.0632,-0.0633,-0.0653,-0.0636,-0.0635,-0.0657,-0.0635,-0.0635,-0.0651,-0.0655,-0.0633,-0.0633,-0.0665,-0.0666,-0.0667,-0.069,0,0,0,0,0,0,-0.0572,-0.058,-0.0598,-0.0604,-0.0609,-0.0644,-0.0632,-0.0633,-0.0654,-0.0654,-0.0654,-0.0652,-0.0635,-0.0651,-0.0651,-0.0655,-0.0633,-0.0664,-0.0665,-0.0667,-0.0688,-0.0691,-0.0694,0,0,0,0,0,-0.057,-0.0593,-0.0599,-0.0605,-0.0632,-0.0645,-0.0647,-0.0649,-0.0656,-0.0667,-0.0669,-0.0653,-0.066,-0.0652,-0.0652,-0.0656,-0.0663,-0.0665,-0.0667,-0.0686,-0.0691,-0.0694,0,0,0,0,0,0,-0.0578,-0.0595,-0.0602,-0.0632,-0.0642,-0.0645,-0.0658,-0.0665,-0.0677,-0.0678,-0.0668,-0.0666,-0.0676,-0.0672,-0.0664,-0.0671,-0.0658,-0.0659,-0.0672,-0.0676,-0.068,-0.0664,-0.0633,0,0,0,0,0,-0.0588,-0.0609,-0.062,-0.0647,-0.0653,-0.0662,-0.0672,-0.0672,-0.068,-0.0686,-0.069,-0.069,-0.0682,-0.0686,-0.0679,-0.0694,-0.0673,-0.0696,-0.07,-0.0702,-0.0691,-0.0675,-0.0675,-0.0674,-0.0674,-0.0674,0,0,-0.06,-0.0612,-0.0626,-0.0649,-0.0658,-0.0664,-0.0668,-0.0684,-0.0685,-0.0683,-0.0701,-0.0702,-0.0689,-0.0693,-0.0698,-0.0693,-0.0693,-0.0705,-0.0707,-0.0694,-0.0677,-0.0676,-0.0676,-0.0675,-0.0675,-0.0674,0,0,-0.0616,-0.0645,-0.0658,-0.0667,-0.068,-0.0681,-0.0692,-0.0706,-0.0711,-0.0726,-0.0719,-0.0728,-0.0733,-0.072,-0.0712,-0.0735,-0.0708,-0.0741,-0.0747,-0.0733,-0.0732,-0.0731,-0.0705,-0.0702,-0.0746,-0.0746,-0.0746,0,-0.0627,-0.0648,-0.0664,-0.0673,-0.0682,-0.0691,-0.07,-0.0702,-0.0721,-0.0728,-0.0732,-0.0742,-0.0736,-0.0729,-0.0733,-0.0739,-0.0726,-0.0731,-0.0735,-0.0734,-0.0732,-0.0706,-0.0702,-0.0747,-0.0747,-0.0747,-0.0747,0,-0.0639,-0.0661,-0.0672,-0.0684,-0.0696,-0.0709,-0.071,-0.0723,-0.0735,-0.0738,-0.075,-0.0749,-0.0754,-0.0756,-0.0748,-0.0743,-0.0735,-0.0737,-0.072,-0.0733,-0.0706,-0.0701,-0.0749,-0.0749,-0.0748,-0.0748,0,0,-0.0645,-0.0675,-0.068,-0.0692,-0.0705,-0.0717,-0.0717,-0.0724,-0.073,-0.0745,-0.0754,-0.075,-0.0764,-0.0755,-0.0757,-0.0746,-0.0728,-0.0742,-0.074,-0.0708,-0.0688,-0.0593,-0.0579,-0.0735,-0.0734,-0.0734,-0.0672,0,-0.0649,-0.0682,-0.0684,-0.0707,-0.0725,-0.0727,-0.0728,-0.0734,-0.074,-0.0751,-0.0747,-0.0757,-0.0758,-0.0769,-0.0757,-0.0737,-0.0717,-0.0744,-0.0687,-0.0684,-0.0592,-0.0571,-0.0732,-0.0669,-0.0668,-0.0667,-0.0666,0,-0.0646,-0.0676,-0.0713,-0.0731,-0.0737,-0.0746,-0.076,-0.0758,-0.0757,-0.0765,-0.0771,-0.0771,-0.0763,-0.0762,-0.0722,-0.0742,-0.0712,-0.0691,-0.0689,-0.0584,-0.058,-0.0653,-0.0657,-0.0658,-0.0659,-0.0659,-0.066,0,-0.0653,-0.0682,-0.0722,-0.0734,-0.0759,-0.0769,-0.0771,-0.0775,-0.0774,-0.078,-0.0783,-0.0776,-0.0773,-0.0741,-0.069,-0.0714,-0.0627,-0.0658,-0.0538,-0.0532,-0.0627,-0.0629,-0.0611,-0.0611,-0.0611,-0.0612,-0.0612,0,-0.0653,-0.0683,-0.0736,-0.0761,-0.0787,-0.0796,-0.0811,-0.0805,-0.0806,-0.0803,-0.08,-0.0784,-0.0767,-0.0714,-0.0679,-0.0573,-0.0615,-0.0517,-0.0501,-0.064,-0.0643,-0.0624,-0.0626,-0.0609,-0.061,-0.061,-0.0611,0,-0.0655,-0.0696,-0.0735,-0.0782,-0.0794,-0.0815,-0.0827,-0.0829,-0.0833,-0.0825,-0.0828,-0.0791,-0.0712,-0.0658,-0.0589,-0.0543,-0.0465,-0.0415,-0.0541,-0.0538,-0.039,-0.0395,-0.0294,-0.029,-0.0287,-0.0284,-0.0282,0,-0.0668,-0.0693,-0.0753,-0.0772,-0.0796,-0.0828,-0.0838,-0.0846,-0.0845,-0.0817,-0.0804,-0.073,-0.0692,-0.0513,-0.0466,-0.0355,-0.0341,-0.0308,-0.0368,-0.0359,-0.0354,-0.0364,-0.0373,-0.0276,-0.0275,-0.0274,-0.0273,0,-0.0675,-0.0699,-0.0731,-0.0772,-0.0799,-0.082,-0.0836,-0.0836,-0.0834,-0.0842,-0.0757,-0.067,-0.0557,-0.046,-0.0348,-0.0284,-0.0341,-0.0273,-0.0281,-0.0338,-0.0336,-0.0337,-0.035,-0.0261,-0.0263,-0.0264,-0.0265,0,-0.0675,-0.069,-0.0727,-0.0751,-0.0785,-0.0799,-0.0811,-0.0794,-0.0789,-0.0761,-0.0726,-0.0623,-0.0578,-0.0418,-0.0325,-0.023,-0.0233,-0.0239,-0.025,-0.0262,-0.0267,-0.0261,-0.0129,0,0,0,0,0,-0.0671,-0.0675,-0.0697,-0.073,-0.0759,-0.078,-0.0798,-0.0809,-0.0817,-0.0745,-0.0734,-0.0621,-0.0454,-0.0389,-0.0275,-0.028,-0.0229,-0.0144,-0.0245,-0.0196,-0.0209,-0.0211,0,0,0,0,0,0,-0.0668,-0.0684,-0.0689,-0.0705,-0.0723,-0.0756,-0.0769,-0.0773,-0.073,-0.0722,-0.0627,-0.0595,-0.0432,-0.0515,-0.0273,-0.0246,-0.0294,-0.0076,-0.0073,-0.0188,-0.02,-0.0211,-0.0218,0,0,0,0,0]}]]